1534752000.04,39515,21.88,74636.3,18.33,9.15,9.71,0,*4D
1534752001.27,39516,21.88,74638.0,18.37,9.19,9.63,0,*45
1534752002.47,39517,21.88,74638.3,18.43,9.15,9.47,0,*4D
1534752003.68,39518,21.88,74638.0,18.47,9.01,9.33,0,*40
1534752004.91,39519,21.88,74636.3,18.49,8.87,9.11,0,*40
1534752006.08,39520,21.88,74638.0,18.55,7.59,7.59,0,*49
1534752007.28,39521,21.88,74636.8,18.53,5.41,5.41,0,*4E
1534752008.49,39522,21.88,74636.5,18.51,4.67,4.57,0,*4C
1534752009.75,39523,21.88,74636.0,18.49,5.01,4.97,0,*49
1534752010.99,39524,21.88,74638.0,18.49,4.85,4.75,0,*4F
1534752012.22,39525,21.88,74636.3,18.45,5.07,4.97,0,*45
1534752013.42,39526,21.88,74636.5,18.43,5.27,5.23,0,*4C
1534752014.68,39527,21.88,74638.8,18.41,5.73,5.73,0,*4B
1534752015.89,39528,21.88,74638.8,18.41,6.07,6.03,0,*40
1534752017.1,39529,21.88,74636.5,18.45,6.11,5.99,0,*42
1534752018.33,39530,21.88,74642.0,18.41,5.95,5.81,0,*48
1534752019.57,39531,21.88,74638.3,18.41,5.11,4.93,0,*47
1534752020.78,39532,21.88,74638.3,18.37,5.45,5.23,0,*4E
1534752022.01,39533,21.88,74638.3,18.37,5.07,5.01,0,*49
1534752023.24,39534,21.88,74632.0,18.37,5.33,5.27,0,*4D
1534752024.49,39535,21.88,74634.8,18.37,5.27,5.27,0,*49
1534752025.73,39536,21.88,74638.0,18.33,4.93,4.93,0,*4E
1534752026.96,39537,21.88,74638.8,18.31,4.57,4.71,0,*49
1534752028.17,39538,21.88,74636.3,18.29,4.31,4.45,0,*48
1534752029.43,39539,21.88,74638.5,18.27,4.75,4.97,0,*48
1534752030.67,39540,21.88,74638.8,18.25,4.75,5.05,0,*4E
1534752031.87,39541,21.88,74638.3,18.23,4.49,4.89,0,*43
1534752033.09,39542,21.88,74642.3,18.25,4.93,5.29,0,*4A
1534752034.35,39543,21.88,74640.0,18.23,5.05,5.51,0,*4C
1534752035.55,39544,21.88,74638.5,18.21,5.23,5.77,0,*49
1534752036.73,39545,21.88,74640.0,18.21,5.33,6.03,0,*49
1534752037.94,39546,21.88,74638.8,18.19,4.57,5.15,0,*46
1534752039.18,39547,21.88,74642.3,18.19,4.41,5.05,0,*41
1534752040.37,39548,21.88,74644.0,18.17,4.15,4.85,0,*48
1534752041.56,39549,21.88,74640.8,18.13,4.11,4.89,0,*45
1534752042.74,39550,21.88,74640.8,18.13,4.81,5.71,0,*42
1534752043.93,39551,21.88,74642.0,18.09,4.89,5.71,0,*40
1534752045.15,39552,21.88,74638.5,18.09,4.15,4.93,0,*4B
1534752046.37,39553,21.88,74640.8,18.09,4.05,4.89,0,*40
1534752047.56,39554,21.88,74640.8,18.05,4.15,5.11,0,*4A
1534752048.75,39555,21.88,74642.8,18.05,4.37,5.33,0,*4B
1534752049.98,39556,21.88,74638.8,18.01,4.75,5.71,0,*4C
1534752051.19,39557,21.88,74640.0,18.03,5.05,6.11,0,*4C
1534752052.4,39558,21.88,74640.0,17.99,4.93,6.03,0,*42
1534752053.6,39559,21.88,74640.5,17.99,4.63,5.59,0,*40
1534752054.81,39560,21.88,74638.5,17.99,5.01,6.03,0,*43
1534752056.04,39561,21.88,74642.5,17.97,5.11,6.13,0,*4C
1534752057.27,39562,21.88,74640.0,17.97,3.59,4.63,0,*40
1534752058.5,39563,21.88,74642.5,17.91,2.69,3.75,0,*45
1534752059.73,39564,21.88,74640.0,17.87,2.85,3.97,0,*4B
1534752060.93,39565,21.88,74636.5,17.83,3.33,4.45,0,*4A
1534752062.14,39566,21.88,74642.3,17.83,4.59,5.67,0,*43
1534752063.37,39567,21.88,74642.3,17.85,4.79,5.71,0,*41
1534752064.58,39568,21.88,74640.3,17.81,3.63,4.57,0,*43
1534752065.82,39569,21.88,74640.8,17.79,3.71,4.67,0,*45
1534752067.02,39570,21.88,74640.8,17.75,4.85,5.73,0,*49
1534752068.21,39571,21.88,74642.5,17.75,5.19,5.99,0,*48
1534752069.45,39572,21.88,74640.5,17.75,5.05,5.85,0,*4B
1534752070.63,39573,21.88,74640.8,17.75,5.33,6.25,0,*46
1534752071.86,39574,21.88,74636.0,17.73,5.71,6.39,0,*4C
1534752073.07,39575,21.88,74640.0,17.69,4.41,5.01,0,*4C
1534752074.28,39576,21.88,74638.5,17.69,4.07,4.59,0,*41
1534752075.48,39577,21.88,74636.8,17.67,4.89,5.49,0,*48
1534752076.69,39578,21.88,74642.3,17.65,5.19,5.55,0,*40
1534752077.89,39579,21.88,74640.8,17.67,5.59,5.95,0,*4B
1534752079.12,39580,21.88,74642.8,17.63,5.33,5.73,0,*4D
1534752080.37,39581,21.88,74636.8,17.63,5.55,5.85,0,*45
1534752081.63,39582,21.88,74642.5,17.63,5.73,5.89,0,*4E
1534752082.84,39583,21.88,74640.8,17.63,6.11,6.11,0,*4A
1534752084.05,39584,21.88,74642.0,17.63,5.41,5.33,0,*48
1534752085.26,39585,21.88,74642.3,17.61,4.93,4.81,0,*4D
1534752086.47,39586,21.88,74640.8,17.61,5.05,4.81,0,*40
1534752087.7,39587,21.88,74640.3,17.59,5.67,5.27,0,*43
1534752088.91,39588,21.88,74640.5,17.57,4.75,4.27,0,*41
1534752090.11,39589,21.88,74642.5,17.57,3.81,3.11,0,*4E
1534752091.32,39590,21.88,74642.5,17.53,4.01,3.29,0,*46
1534752092.57,39591,21.88,74644.0,17.51,4.01,3.19,0,*46
1534752093.8,39592,21.88,74646.0,17.49,4.31,3.53,0,*41
1534752095.03,39593,21.88,74642.5,17.45,4.63,3.71,0,*4B
1534752096.24,39594,21.88,74640.3,17.43,4.37,3.25,0,*4A
1534752097.47,39595,21.88,74642.5,17.39,4.67,3.59,0,*48
1534752098.7,39596,21.88,74644.0,17.39,5.15,4.05,0,*41
1534752099.9,39597,21.88,74640.8,17.41,5.29,4.01,0,*44
1534752101.09,39598,21.88,74638.5,17.39,5.45,4.11,0,*4F
1534752102.32,39599,21.88,74644.0,17.39,5.37,3.97,0,*42
1534752103.52,39600,21.88,74640.0,17.39,5.71,4.41,0,*4F
1534752104.75,39601,21.88,74642.3,17.39,5.73,4.23,0,*48
1534752105.95,39602,21.88,74640.8,17.39,5.59,4.11,0,*42
1534752107.21,39603,21.88,74638.3,17.39,5.85,4.31,0,*40
1534752108.42,39604,21.88,74642.8,17.39,5.95,4.33,0,*44
1534752109.63,39605,21.88,74642.3,17.39,5.95,4.41,0,*40
1534752110.82,39606,21.88,74642.3,17.41,6.11,4.45,0,*47
1534752112.03,39607,21.88,74640.0,17.41,5.89,4.33,0,*45
1534752113.26,39608,21.88,74642.0,17.39,5.55,3.93,0,*49
1534752114.49,39609,21.88,74644.3,17.39,5.37,3.71,0,*40
1534752115.69,39610,21.88,74640.3,17.41,5.41,3.79,0,*4E
1534752116.92,39611,21.88,74642.5,17.39,5.11,3.49,0,*46
1534752118.18,39612,21.88,74642.8,17.39,4.93,3.33,0,*43
1534752119.41,39613,21.88,74640.5,17.41,4.67,3.19,0,*4E
1534752120.62,39614,21.88,74642.0,17.39,4.19,2.65,0,*45
1534752121.88,39615,21.94,74644.5,17.39,4.31,2.81,0,*44
1534752123.11,39616,21.88,74642.3,17.39,4.57,3.23,0,*4E
1534752124.34,39617,21.88,74642.3,17.39,3.97,2.65,0,*47
1534752125.59,39618,21.88,74640.8,17.39,2.89,1.71,0,*40
1534752126.8,39619,21.88,74638.8,17.37,3.25,2.17,0,*4B
1534752128.02,39620,21.88,74640.0,17.35,2.47,1.41,0,*46
1534752129.28,39621,21.88,74638.5,17.35,2.25,1.29,0,*4D
1534752130.51,39622,21.88,74640.8,17.31,2.31,1.55,0,*44
1534752131.71,39623,21.88,74638.8,17.33,2.61,1.97,0,*4C
1534752132.95,39624,21.88,74642.0,17.31,2.65,2.17,0,*46
1534752134.18,39625,21.88,74640.3,17.29,2.17,1.71,0,*48
1534752135.41,39626,21.94,74646.0,17.29,1.93,1.59,0,*4E
1534752136.61,39627,21.88,74640.5,17.29,2.39,2.31,0,*41
1534752137.82,39628,21.88,74640.5,17.29,2.65,2.69,0,*4A
1534752139.06,39629,21.88,74642.8,17.29,2.59,2.89,0,*4A
1534752140.32,39630,21.88,74642.3,17.27,2.51,2.77,0,*45
1534752141.54,39631,21.94,74646.5,17.27,1.71,2.27,0,*40
1534752142.76,39632,21.88,74642.5,17.29,1.21,1.75,0,*4C
1534752144.0,39633,21.88,74642.8,17.23,0.67,1.51,0,*72
1534752145.23,39634,21.88,74642.0,17.21,1.59,2.59,0,*40
1534752146.49,39635,21.88,74640.0,17.23,1.29,2.47,0,*4B
1534752147.7,39636,21.88,74640.0,17.21,1.67,2.95,0,*4F
1534752148.93,39637,21.88,74642.3,17.23,1.97,3.55,0,*4E
1534752150.14,39638,21.88,74642.3,17.21,1.85,3.55,0,*40
1534752151.34,39639,21.88,74640.5,17.23,1.79,3.63,0,*45
1534752152.59,39640,21.88,74640.8,17.23,1.67,3.53,0,*47
1534752153.8,39641,21.88,74640.0,17.21,1.63,3.63,0,*43
1534752155.03,39642,21.88,74642.3,17.21,1.51,3.67,0,*45
1534752156.28,39643,21.88,74640.3,17.23,1.67,4.01,0,*44
1534752157.49,39644,21.88,74640.3,17.23,1.75,4.15,0,*45
1534752158.72,39645,21.88,74638.5,17.23,1.63,4.11,0,*47
1534752159.94,39646,21.88,74640.3,17.23,1.59,4.23,0,*4C
1534752161.18,39647,21.88,74638.8,17.21,1.89,4.71,0,*45
1534752162.44,39648,21.88,74642.5,17.23,2.25,5.05,0,*4F
1534752163.67,39649,21.88,74640.5,17.27,2.25,5.19,0,*47
1534752164.89,39650,21.88,74638.8,17.27,2.27,5.33,0,*45
1534752166.12,39651,21.88,74642.3,17.27,2.51,5.67,0,*44
1534752167.33,39652,21.88,74640.8,17.29,2.65,5.85,0,*42
1534752168.57,39653,21.88,74638.8,17.31,2.77,6.03,0,*44
1534752169.8,39654,21.94,74642.5,17.29,2.81,6.13,0,*42
1534752171.03,39655,21.88,74638.0,17.29,3.03,6.43,0,*4D
1534752172.27,39656,21.88,74642.8,17.31,3.25,6.65,0,*47
1534752173.49,39657,21.88,74638.8,17.35,3.29,6.61,0,*4A
1534752174.73,39658,21.88,74642.3,17.37,2.39,5.81,0,*4A
1534752175.93,39659,21.88,74638.8,17.33,1.75,5.27,0,*48
1534752177.14,39660,21.88,74638.8,17.33,1.97,5.41,0,*4E
1534752178.35,39661,21.88,74642.0,17.33,1.85,5.29,0,*42
1534752179.57,39662,21.88,74640.3,17.33,2.25,5.85,0,*4E
1534752180.78,39663,21.88,74638.0,17.31,3.29,6.93,0,*44
1534752181.99,39664,21.88,74640.3,17.33,3.75,7.33,0,*43
1534752183.16,39665,21.88,74638.8,17.33,3.85,7.37,0,*49
1534752184.4,39666,21.88,74638.8,17.37,4.05,7.65,0,*46
1534752185.64,39667,21.88,74640.8,17.37,4.05,7.73,0,*40
1534752186.85,39668,21.88,74634.3,17.37,4.07,7.73,0,*4D
1534752188.08,39669,21.88,74638.5,17.39,3.97,7.55,0,*48
1534752189.29,39670,21.88,74638.8,17.43,3.89,7.55,0,*42
1534752190.53,39671,21.88,74640.0,17.43,4.11,7.77,0,*45
1534752191.72,39672,21.88,74638.3,17.45,4.15,7.79,0,*4A
1534752192.96,39673,21.88,74638.0,17.43,4.07,7.69,0,*4F
1534752194.16,39674,21.88,74640.0,17.45,4.01,7.59,0,*4B
1534752195.36,39675,21.88,74638.0,17.45,3.49,7.05,0,*48
1534752196.56,39676,21.88,74636.5,17.49,3.37,6.93,0,*40
1534752197.76,39677,21.94,74640.5,17.45,3.33,6.79,0,*4D
1534752198.97,39678,21.88,74638.8,17.45,3.93,7.47,0,*44
1534752200.15,39679,21.88,74638.3,17.49,4.57,8.09,0,*43
1534752201.38,39680,21.88,74636.3,17.51,4.67,8.15,0,*42
1534752202.62,39681,21.88,74638.3,17.55,4.31,7.79,0,*41
1534752203.86,39682,21.88,74636.0,17.53,4.71,8.13,0,*43
1534752205.04,39683,21.88,74638.8,17.53,4.57,8.01,0,*45
1534752206.25,39684,21.88,74638.5,17.57,4.63,8.01,0,*41
1534752207.49,39685,21.88,74636.0,17.57,4.79,8.13,0,*48
1534752208.69,39686,21.88,74634.0,17.59,5.23,8.45,0,*48
1534752209.89,39687,21.88,74636.3,17.59,5.45,8.65,0,*4B
1534752211.12,39688,21.88,74638.5,17.63,5.99,9.15,0,*4A
1534752212.36,39689,21.88,74636.5,17.65,6.65,9.85,0,*44
1534752213.54,39690,21.88,74636.5,17.69,6.79,9.91,0,*48
1534752214.78,39691,21.88,74638.5,17.73,6.43,9.47,0,*40
1534752216.0,39692,21.88,74638.8,17.75,6.57,9.75,0,*41
1534752217.27,39693,21.94,74640.3,17.81,7.11,10.19,0,*7A
1534752218.5,39694,21.88,74636.3,17.81,6.75,9.89,0,*4F
1534752219.71,39695,21.88,74638.5,17.85,5.99,9.07,0,*4D
1534752220.93,39696,21.88,74638.0,17.85,6.03,9.33,0,*49
1534752222.13,39697,21.88,74636.5,17.89,5.95,9.33,0,*48
1534752223.37,39698,21.88,74638.0,17.89,6.65,9.91,0,*43
1534752224.59,39699,21.88,74638.0,17.95,6.87,10.05,0,*76
1534752225.8,39700,21.88,74636.3,17.97,5.99,9.21,0,*47
1534752227.0,39701,21.88,74634.5,17.99,6.13,9.33,0,*4A
1534752228.2,39702,21.88,74638.5,17.99,5.37,8.75,0,*4F
1534752229.45,39703,21.88,74638.0,18.01,4.75,8.13,0,*47
1534752230.66,39704,21.88,74638.0,18.03,5.05,8.69,0,*49
1534752231.88,39705,21.88,74638.8,18.03,5.51,9.01,0,*46
1534752233.09,39706,21.88,74636.5,18.03,5.73,9.25,0,*43
1534752234.27,39707,21.88,74636.5,18.05,5.63,9.25,0,*45
1534752235.53,39708,21.88,74638.0,18.07,5.01,8.71,0,*4C
1534752236.77,39709,21.88,74636.5,18.07,4.81,8.55,0,*42
1534752238.03,39710,21.88,74638.0,18.07,4.63,8.55,0,*46
1534752239.25,39711,21.88,74636.8,18.09,4.31,8.19,0,*46
1534752240.47,39712,21.94,74636.5,18.09,4.23,8.13,0,*4C
1534752241.65,39713,21.94,74638.0,18.09,4.23,8.19,0,*47
1534752242.87,39714,21.88,74634.0,18.07,4.19,8.27,0,*4A
1534752244.06,39715,21.88,74634.0,18.09,4.41,8.45,0,*4C
1534752245.29,39716,21.88,74632.3,18.09,4.63,8.75,0,*4C
1534752246.51,39717,21.88,74636.5,18.09,5.01,9.07,0,*4C
1534752247.74,39718,21.88,74634.0,18.11,4.59,8.69,0,*4F
1534752248.97,39719,21.88,74632.5,18.11,4.89,9.11,0,*4D
1534752250.18,39720,21.94,74638.3,18.09,5.23,9.35,0,*49
1534752251.41,39721,21.94,74632.8,18.11,5.05,9.25,0,*44
1534752252.65,39722,21.88,74634.8,18.13,4.93,9.35,0,*4A
1534752253.85,39723,21.94,74638.0,18.13,5.29,9.57,0,*4F
1534752255.09,39724,21.94,74636.8,18.13,5.51,9.81,0,*4C
1534752256.3,39725,21.94,74636.8,18.19,5.71,9.99,0,*4C
1534752257.5,39726,21.88,74632.8,18.19,5.33,9.63,0,*4C
1534752258.73,39727,21.88,74634.3,18.19,5.45,9.89,0,*48
1534752259.91,39728,21.88,74638.5,18.21,5.45,9.75,0,*4F
1534752261.14,39729,21.94,74638.5,18.23,5.19,9.61,0,*40
1534752262.35,39730,21.88,74632.5,18.23,4.37,8.83,0,*48
1534752263.56,39731,21.88,74634.3,18.23,4.23,8.69,0,*48
1534752264.79,39732,21.88,74638.5,18.23,4.23,8.59,0,*48
1534752266.0,39733,21.88,74636.3,18.21,4.23,8.59,0,*4B
1534752267.23,39734,21.88,74632.8,18.23,4.31,8.65,0,*42
1534752268.44,39735,21.94,74636.8,18.25,5.19,9.61,0,*4B
1534752269.64,39736,21.94,74636.3,18.21,5.55,9.99,0,*43
1534752270.86,39737,21.88,74632.3,18.23,6.11,10.47,0,*78
1534752272.06,39738,21.94,74636.8,18.25,6.11,10.47,0,*71
1534752273.26,39739,21.88,74636.5,18.25,5.67,10.13,0,*73
1534752274.44,39740,21.88,74636.5,18.29,4.89,9.21,0,*49
1534752275.65,39741,21.94,74636.3,18.27,4.45,8.87,0,*4B
1534752276.87,39742,21.94,74636.8,18.27,4.57,8.97,0,*4A
1534752278.09,39743,21.94,74638.0,18.27,6.93,11.21,0,*74
1534752279.32,39744,21.88,74636.3,18.31,8.37,12.51,0,*70
1534752280.53,39745,21.88,74638.3,18.35,8.69,12.73,0,*7E
1534752281.76,39746,21.88,74636.3,18.41,8.09,12.17,0,*7A
1534752282.94,39747,21.94,74638.5,18.43,7.79,11.85,0,*79
1534752284.13,39748,21.88,74636.0,18.47,8.19,12.27,0,*70
1534752285.36,39749,21.88,74634.8,18.51,9.53,13.55,0,*7D
1534752286.59,39750,21.94,74638.5,18.55,10.23,14.11,0,*49
1534752287.83,39751,21.94,74638.0,18.63,10.79,14.71,0,*44
1534752289.03,39752,21.94,74636.3,18.67,11.13,14.81,0,*41
1534752290.26,39753,21.94,74636.8,18.73,11.41,15.09,0,*43
1534752291.49,39754,21.88,74632.5,18.81,11.41,15.05,0,*45
1534752292.73,39755,21.94,74636.5,18.91,11.75,15.31,0,*45
1534752293.98,39756,21.88,74632.5,18.95,11.65,15.11,0,*41
1534752295.23,39757,21.88,74636.8,18.99,12.03,15.45,0,*4E
1534752296.44,39758,21.88,74634.8,19.07,12.19,15.51,0,*49
1534752297.68,39759,21.94,74638.0,19.13,13.05,16.39,0,*4C
1534752298.93,39760,21.94,74638.8,19.21,13.35,16.69,0,*41
1534752300.12,39761,21.88,74636.5,19.27,13.71,16.95,0,*45
1534752301.33,39762,21.94,74640.5,19.35,13.71,16.91,0,*41
1534752302.58,39763,21.88,74634.8,19.43,13.91,16.95,0,*4B
1534752303.79,39764,21.88,74634.5,19.53,13.89,16.89,0,*49
1534752305.01,39765,21.94,74638.5,19.57,14.01,16.85,0,*47
1534752306.27,39766,21.94,74638.5,19.65,13.85,16.47,0,*40
1534752307.54,39767,21.88,74634.8,19.69,13.21,15.93,0,*49
1534752308.75,39768,21.94,74638.0,19.77,13.79,16.39,0,*47
1534752309.96,39769,21.88,74632.3,19.83,13.45,15.97,0,*45
1534752311.19,39770,21.94,74638.5,19.87,13.51,16.07,0,*46
1534752312.43,39771,21.94,74636.3,19.95,13.51,16.01,0,*42
1534752313.64,39772,21.88,74634.5,20.01,13.49,15.77,0,*4D
1534752314.84,39773,21.94,74638.5,20.07,13.71,15.91,0,*49
1534752316.11,39774,21.88,74634.0,20.09,13.69,15.85,0,*4C
1534752317.37,39775,21.94,74638.8,20.13,13.81,15.97,0,*43
1534752318.63,39776,21.94,74636.0,20.21,14.25,16.17,0,*43
1534752319.83,39777,21.88,74634.5,20.27,14.31,16.23,0,*46
1534752321.11,39778,21.88,74632.3,20.31,14.55,16.37,0,*49
1534752322.33,39779,21.88,74634.0,20.37,14.31,15.93,0,*41
1534752323.6,39780,21.94,74636.0,20.39,13.95,15.51,0,*4E
1534752324.82,39781,21.94,74632.3,20.45,13.81,15.31,0,*47
1534752326.05,39782,21.88,74632.8,20.49,13.27,14.61,0,*40
1534752327.27,39783,21.94,74638.5,20.53,12.83,14.09,0,*4B
1534752328.47,39784,21.94,74636.8,20.55,12.19,13.41,0,*42
1534752329.71,39785,21.94,74636.3,20.57,11.67,12.87,0,*40
1534752330.92,39786,21.94,74634.8,20.55,10.55,11.65,0,*4E
1534752332.13,39787,21.94,74638.3,20.51,10.09,11.21,0,*42
1534752333.36,39788,21.94,74634.8,20.51,10.43,11.33,0,*40
1534752334.62,39789,21.94,74638.3,20.51,10.23,11.07,0,*40
1534752335.87,39790,21.94,74638.0,20.51,10.33,10.99,0,*4F
1534752337.08,39791,21.94,74632.8,20.47,9.91,10.69,0,*76
1534752338.35,39792,21.88,74634.5,20.47,9.81,10.61,0,*7C
1534752339.56,39793,21.94,74638.0,20.43,9.03,9.71,0,*4A
1534752340.79,39794,21.88,74634.5,20.43,9.21,9.77,0,*4B
1534752342.03,39795,21.94,74636.5,20.39,9.43,9.85,0,*4E
1534752343.21,39796,21.94,74636.5,20.37,8.65,8.87,0,*45
1534752344.41,39797,21.94,74636.3,20.33,8.75,9.03,0,*4C
1534752345.67,39798,21.94,74636.3,20.31,8.89,9.11,0,*41
1534752346.89,39799,21.94,74638.5,20.29,8.55,8.45,0,*48
1534752348.1,39800,21.94,74636.3,20.25,8.23,8.15,0,*4F
1534752349.28,39801,21.88,74636.3,20.23,8.27,8.09,0,*41
1534752350.51,39802,21.94,74638.0,20.21,7.97,7.73,0,*46
1534752351.72,39803,21.94,74640.3,20.15,7.83,7.41,0,*44
1534752352.92,39804,21.94,74636.3,20.11,6.97,6.39,0,*4D
1534752354.15,39805,21.94,74636.8,20.07,7.15,6.57,0,*48
1534752355.35,39806,21.94,74636.5,20.03,7.33,6.61,0,*4E
1534752356.53,39807,21.94,74634.0,19.99,7.59,6.79,0,*43
1534752357.78,39808,21.94,74636.3,19.93,8.51,7.69,0,*41
1534752359.02,39809,21.94,74636.8,19.93,8.79,7.91,0,*4D
1534752360.28,39810,21.94,74636.8,19.89,8.75,7.73,0,*4E
1534752361.51,39811,21.94,74636.8,19.89,8.75,7.59,0,*47
1534752362.76,39812,21.94,74638.5,19.85,8.41,7.11,0,*43
1534752363.96,39813,21.94,74636.3,19.87,8.37,6.97,0,*4E
1534752365.18,39814,21.94,74636.0,19.83,8.55,6.97,0,*49
1534752366.4,39815,21.94,74636.5,19.79,7.61,5.93,0,*42
1534752367.63,39816,21.94,74638.0,19.77,7.91,5.95,0,*46
1534752368.82,39817,21.94,74636.0,19.71,7.59,5.59,0,*45
1534752370.05,39818,21.94,74638.5,19.69,7.83,5.71,0,*4E
1534752371.31,39819,21.94,74638.5,19.63,7.19,4.93,0,*4B
1534752372.52,39820,21.88,74634.8,19.63,7.79,5.49,0,*41
1534752373.74,39821,21.94,74638.3,19.61,8.29,5.81,0,*4C
1534752374.97,39822,21.94,74636.3,19.59,8.05,5.55,0,*43
1534752376.2,39823,21.94,74638.5,19.55,7.87,5.19,0,*43
1534752377.41,39824,21.94,74636.5,19.55,7.97,5.19,0,*45
1534752378.63,39825,21.94,74638.0,19.49,7.95,5.07,0,*44
1534752379.84,39826,21.94,74636.5,19.49,7.83,4.85,0,*4B
1534752381.01,39827,21.94,74638.3,19.45,7.33,4.27,0,*45
1534752382.25,39828,21.94,74638.8,19.41,7.11,4.05,0,*4E
1534752383.43,39829,21.94,74640.3,19.41,7.45,4.19,0,*43
1534752384.64,39830,21.88,74634.0,19.37,7.73,4.41,0,*42
1534752385.84,39831,21.94,74638.0,19.37,7.97,4.59,0,*40
1534752387.05,39832,21.94,74638.8,19.35,7.55,4.07,0,*44
1534752388.29,39833,21.94,74636.3,19.33,7.61,4.05,0,*46
1534752389.5,39834,21.94,74638.8,19.27,7.05,3.37,0,*40
1534752390.71,39835,21.94,74636.8,19.27,7.05,3.33,0,*45
1534752391.96,39836,21.94,74634.3,19.25,7.15,3.33,0,*45
1534752393.14,39837,21.88,74634.3,19.23,6.83,2.99,0,*4D
1534752394.37,39838,21.94,74638.8,19.21,6.21,2.09,0,*41
1534752395.61,39839,21.94,74636.3,19.17,6.33,2.25,0,*48
1534752396.84,39840,21.94,74638.3,19.15,6.47,2.43,0,*47
1534752398.07,39841,21.94,74638.8,19.15,6.65,2.47,0,*42
1534752399.31,39842,21.94,74636.8,19.13,6.29,2.05,0,*49
1534752400.55,39843,21.94,74638.8,19.09,6.29,2.13,0,*44
1534752401.77,39844,21.94,74638.5,19.07,5.77,1.51,0,*40
1534752402.99,39845,21.94,74636.5,19.07,5.73,1.47,0,*42
1534752404.22,39846,21.94,74638.3,19.01,5.59,1.29,0,*47
1534752405.42,39847,21.94,74636.5,18.97,5.23,0.79,0,*71
1534752406.61,39848,21.88,74632.3,18.97,4.27,-0.33,0,*58
1534752407.8,39849,21.94,74638.8,18.93,3.89,-0.69,0,*51
1534752408.99,39850,21.94,74638.5,18.89,4.15,-0.41,0,*5A
1534752410.21,39851,21.94,74642.5,18.87,3.89,-0.69,0,*5D
1534752411.39,39852,21.94,74638.0,18.85,4.57,0.01,0,*4B
1534752412.6,39853,21.94,74638.3,18.81,4.33,-0.27,0,*55
1534752413.78,39854,21.94,74638.0,18.77,4.41,-0.03,0,*68
1534752414.95,39855,21.94,74638.0,18.77,4.49,-0.07,0,*65
1534752416.16,39856,21.94,74638.0,18.75,4.33,-0.29,0,*55
1534752417.37,39857,21.94,74638.5,18.75,4.07,-0.61,0,*5F
1534752418.6,39858,21.94,74640.5,18.71,3.63,-1.01,0,*66
1534752419.81,39859,21.94,74638.8,18.69,3.81,-0.89,0,*53
1534752421.04,39860,21.94,74638.3,18.67,3.71,-0.93,0,*53
1534752422.29,39861,21.94,74636.8,18.65,3.97,-0.85,0,*5F
1534752423.47,39862,21.94,74638.0,18.63,3.55,-1.17,0,*6E
1534752424.7,39863,21.94,74638.8,18.57,3.37,-1.63,0,*6F
1534752425.94,39864,21.94,74636.3,18.57,3.37,-1.51,0,*69
1534752427.17,39865,21.94,74638.5,18.53,2.95,-1.91,0,*69
1534752428.43,39866,21.94,74638.8,18.53,2.81,-2.03,0,*67
1534752429.62,39867,21.94,74636.8,18.51,2.65,-2.27,0,*68
1534752430.85,39868,21.94,74638.8,18.47,2.55,-2.55,0,*66
1534752432.06,39869,21.94,74636.3,18.45,2.31,-2.95,0,*6B
1534752433.3,39870,21.94,74638.0,18.41,1.93,-3.27,0,*64
1534752434.51,39871,21.94,74636.3,18.35,1.75,-3.35,0,*6D
1534752435.75,39872,21.94,74636.8,18.35,1.17,-3.95,0,*60
1534752436.96,39873,21.94,74638.8,18.29,1.47,-3.75,0,*67
1534752438.2,39874,21.94,74638.3,18.29,1.71,-3.43,0,*60
1534752439.41,39875,21.94,74636.8,18.25,2.01,-3.07,0,*69
1534752440.63,39876,21.94,74638.3,18.25,2.13,-2.95,0,*63
1534752441.87,39877,21.94,74638.5,18.23,1.97,-3.19,0,*6E
1534752443.1,39878,21.94,74638.0,18.23,1.75,-3.43,0,*62
1534752444.31,39879,21.94,74638.8,18.23,1.75,-3.35,0,*62
1534752445.56,39880,21.94,74642.3,18.17,1.55,-3.59,0,*6B
1534752446.77,39881,21.94,74642.0,18.17,1.67,-3.39,0,*6D
1534752447.96,39882,21.94,74640.5,18.13,1.75,-3.19,0,*6B
1534752449.19,39883,21.94,74638.0,18.11,1.63,-3.31,0,*65
1534752450.44,39884,21.94,74636.5,18.11,1.25,-3.75,0,*60
1534752451.65,39885,21.94,74636.8,18.09,0.87,-4.13,0,*56
1534752452.86,39886,21.94,74638.5,18.05,0.67,-4.41,0,*50
1534752454.06,39887,21.94,74638.8,18.05,0.33,-4.57,0,*57
1534752455.29,39888,21.94,74638.0,18.03,0.17,-4.77,0,*5A
1534752456.5,39889,21.94,74640.5,18.01,-0.45,-5.39,0,*78
1534752457.7,39890,21.94,74642.5,17.99,-0.97,-5.97,0,*75
1534752458.89,39891,21.94,74636.8,17.91,-1.21,-6.05,0,*48
1534752460.08,39892,21.94,74638.8,17.91,0.01,-4.77,0,*62
1534752461.29,39893,21.94,74640.5,17.87,0.25,-4.41,0,*57
1534752462.5,39894,21.94,74642.3,17.87,-0.49,-5.11,0,*73
1534752463.76,39895,21.94,74642.3,17.85,-1.17,-5.89,0,*4B
1534752464.96,39896,21.94,74642.0,17.83,-0.93,-5.35,0,*74
1534752466.2,39897,21.94,74640.3,17.79,-1.05,-5.55,0,*48
1534752467.42,39898,21.94,74638.8,17.75,-1.95,-6.59,0,*4D
1534752468.63,39899,21.94,74638.0,17.75,-1.79,-6.27,0,*47
1534752469.88,39900,21.94,74638.3,17.73,-1.55,-5.85,0,*45
1534752471.1,39901,21.94,74638.8,17.69,-1.71,-5.93,0,*4E
1534752472.33,39902,21.94,74640.0,17.67,-0.93,-4.99,0,*75
1534752473.52,39903,21.94,74642.8,17.65,-0.33,-4.37,0,*78
1534752474.73,39904,21.94,74638.8,17.65,-0.77,-4.73,0,*7F
1534752475.95,39905,21.94,74642.3,17.63,-0.33,-4.25,0,*7B
1534752477.2,39906,21.94,74640.3,17.63,-1.33,-5.23,0,*4E
1534752478.43,39907,21.94,74642.8,17.61,-1.55,-5.31,0,*4E
1534752479.65,39908,21.94,74642.5,17.61,-1.21,-4.77,0,*41
1534752480.87,39909,21.94,74640.3,17.59,-0.77,-4.41,0,*7C
1534752482.09,39910,21.94,74638.5,17.57,-0.97,-4.65,0,*72
1534752483.34,39911,21.94,74638.8,17.57,-1.47,-5.07,0,*4A
1534752484.57,39912,21.94,74640.3,17.57,-1.71,-5.19,0,*43
1534752485.82,39913,21.94,74640.3,17.53,-1.83,-5.19,0,*4B
1534752487.03,39914,21.94,74642.3,17.53,-1.55,-4.77,0,*4E
1534752488.23,39915,21.94,74640.5,17.53,-1.55,-4.65,0,*4C
1534752489.45,39916,21.94,74636.8,17.51,-0.61,-3.63,0,*7A
1534752490.68,39917,21.94,74636.5,17.51,-0.49,-3.43,0,*73
1534752491.86,39918,21.94,74640.3,17.49,-0.53,-3.23,0,*78
1534752493.11,39919,21.94,74640.5,17.51,-0.97,-3.51,0,*7D
1534752494.33,39920,21.94,74642.0,17.51,-1.33,-3.83,0,*47
1534752495.55,39921,21.94,74636.3,17.51,-0.93,-3.23,0,*77
1534752496.73,39922,21.94,74642.5,17.53,-0.61,-2.87,0,*74
1534752497.97,39923,21.94,74638.8,17.51,-1.09,-3.31,0,*44
1534752499.2,39924,21.94,74642.0,17.51,-1.13,-3.23,0,*4B
1534752500.42,39925,21.94,74636.3,17.53,-1.43,-3.31,0,*4E
1534752501.65,39926,21.94,74640.3,17.51,-1.09,-2.83,0,*49
1534752502.89,39927,21.94,74638.5,17.51,-1.43,-3.07,0,*4B
1534752504.13,39928,21.94,74638.8,17.51,-1.09,-2.35,0,*4A
1534752505.35,39929,21.94,74638.5,17.53,-1.13,-2.35,0,*42
1534752506.57,39930,21.94,74642.5,17.53,-1.09,-2.19,0,*4F
1534752507.79,39931,21.94,74636.8,17.55,-1.29,-2.15,0,*46
1534752509.04,39932,21.94,74636.8,17.55,-1.29,-2.03,0,*42
1534752510.26,39933,21.94,74642.0,17.55,-1.51,-2.15,0,*4B
1534752511.5,39934,21.94,74642.5,17.55,-1.55,-2.03,0,*4F
1534752512.74,39935,21.94,74642.0,17.55,-1.67,-1.95,0,*43
1534752513.98,39936,21.94,74642.5,17.55,-1.43,-1.55,0,*4A
1534752515.2,39937,21.94,74638.0,17.55,-1.63,-1.51,0,*4D
1534752516.42,39938,21.94,74640.5,17.55,-1.55,-1.29,0,*48
1534752517.66,39939,21.94,74640.3,17.57,-1.39,-0.89,0,*7A